Tracking 29495 objects as of 7-Sep-2024
HD Live streaming from Space Station
objects crossing your sky now

FLOCK 4X 1

Track FLOCK 4X 1 now!
10-day predictions


NORAD ID: 51017
Int'l Code: 2022-002AK
Perigee: 400.6 km
Apogee: 404.1 km
Inclination: 97.4 °
Period: 92.5 minutes
Semi major axis: 6773 km
RCS: Unknown
Launch date: January 13, 2022
Source: United States (US)
Launch site: AIR FORCE EASTERN TEST RANGE (AFETR)
Your satellite tracking list
Your tracking list is empty




NASA's NSSDC Master Catalog

Two Line Element Set (TLE):
1 51017U 22002AK  24251.21518234  .00105251  00000-0  14223-2 0  9998
2 51017  97.3777 329.3238 0002585  68.3858 291.7673 15.57391986147746
Source of the keplerian elements: AFSPC